Simultaneous Nadir Overpasses (SNOs) Predictions

Prediction of SNOs between METOP-B and TERRA Satellite Orbit:

Table of predicted SNOs for the next 14.0 days since TLE Epoch: 9/28/2019
Index Date (METOP-B) Time (METOP-B) Lat,Lon (METOP-B) SZA (METOP-B ) Date (TERRA) Time (TERRA) Lat,Lon (TERRA) SZA (TERRA ) Distance(km) Time Diff (sec)
1 09/28/2019 16:46:06 -81.32, 155.57 93.59 09/28/2019 16:46:11 -81.31, 155.65 93.58 1.50 5
2 09/28/2019 17:36:45 81.32, -36.55 86.50 09/28/2019 17:35:37 81.32, -36.56 86.46 0.32 68
3 10/01/2019 11:29:47 81.31, 54.40 87.49 10/01/2019 11:31:00 81.30, 54.27 87.50 2.40 73
4 10/01/2019 12:20:27 -81.32,-137.79 92.45 10/01/2019 12:20:26 -81.32,-137.80 92.45 0.31 1
5 10/01/2019 13:10:53 81.35, 35.21 88.27 10/01/2019 13:09:39 81.56, 35.05 88.33 23.23 74
6 10/04/2019 07:04:09 81.31, 120.60 88.57 10/04/2019 07:05:15 81.31, 120.77 88.62 2.84 66
7 10/04/2019 07:54:48 -81.32, -71.16 91.31 10/04/2019 07:54:41 -81.32, -71.27 91.33 1.94 7
8 10/07/2019 02:38:29 81.31,-172.82 89.69 10/07/2019 02:39:29 81.31,-172.75 89.72 1.22 60
9 10/07/2019 03:29:09 -81.32, -4.95 90.24 10/07/2019 03:28:55 -81.33, -4.76 90.22 3.18 14
10 10/09/2019 22:12:50 81.31,-106.25 90.80 10/09/2019 22:13:44 81.31,-106.28 90.82 0.65 54




NCC Satellite Simultaneous Nadir Overpasses (SNOs) Prediction Service
